Regional Weather Roundup
Issued by NWS

Home | Current Version | Previous Version | Graphics & Text | Print | Product List | Glossary On
Versions: 1 2 3 4 5 6 7 8 9 10 11 12 13 14 15 16 17 18 19 20 21 22 23 24 25 26 27 28 29 30 31 32 33 34 35 36 37 38 39 40 41 42 43 44 45 46 47 48 49 50
000
ASUS43 KOAX 251702
RWRNE

WEATHER ROUNDUP FOR NEBRASKA
NATIONAL WEATHER SERVICE OMAHA NE
1100 AM CST SUN JAN 25 2015

NOTES: SATELLITE DATA IS BEING USED TO AUGMENT CLOUD COVER ABOVE
       12000 FEET.
       "FAIR" INDICATES FEW OR NO CLOUDS BELOW 12,000 FEET WITH NO
       SIGNIFICANT WEATHER AND/OR OBSTRUCTIONS TO VISIBILITY.

  * THESE STATIONS DO NOT REPORT WEATHER SUCH AS RAIN...SNOW OR FOG.

NEZ001>004-019>022-054>056-251800-
NEBRASKA PANHANDLE

CITY           SKY/WX    TMP DP  RH WIND       PRES   REMARKS
SCOTTSBLUFF    CLOUDY    40  32  73 NW8       30.14S WCI  34
ALLIANCE       PTSUNNY   40  30  67 W15       30.09S WCI  32
CHADRON        CLOUDY    42  28  57 W14       30.09S
SIDNEY         CLOUDY    45  29  53 NW15      30.14R
$$

NEZ057>060-069>072-079>082-251800-
SOUTHWEST NEBRASKA

CITY           SKY/WX    TMP DP  RH WIND       PRES   REMARKS
NORTH PLATTE   SUNNY     43  26  51 NW21G30   30.09R
IMPERIAL       SUNNY     44  28  53 NW21      30.11R
MCCOOK         SUNNY     47  24  40 NW25G38   30.09R
$$

NEZ005>010-023>029-035>040-094-251800-
NORTH CENTRAL NEBRASKA

CITY           SKY/WX    TMP DP  RH WIND       PRES   REMARKS
VALENTINE      CLOUDY    37  29  72 NW14      30.07R WCI  28
BROKEN BOW     CLOUDY    40  30  67 N21G30    30.04R WCI  30
ORD            CLOUDY    40  31  70 N18       30.02R WCI  31
$$

NEZ041-046>049-061>064-073>077-083>087-251800-
SOUTH CENTRAL NEBRASKA

CITY           SKY/WX    TMP DP  RH WIND       PRES   REMARKS
GRAND ISLAND   CLOUDY    40  31  70 N26G32    30.02R WCI  29
HASTINGS       CLOUDY    41  29  62 N29G40    30.02R
KEARNEY *      CLOUDY    43  28  56 N24G30    30.04R
$$

NEZ011>018-030>034-042>045-251800-
NORTHEAST NEBRASKA

CITY           SKY/WX    TMP DP  RH WIND       PRES   REMARKS
NORFOLK        CLOUDY    35  32  88 N13G23    30.00R WCI  26
COLUMBUS *     CLOUDY    36  27  69 N16       30.02R WCI  26
TEKAMAH        CLOUDY    38  34  85 N24       29.98R WCI  27
$$

NEZ050>053-065>068-078-088>093-251800-
SOUTHEAST NEBRASKA

CITY           SKY/WX    TMP DP  RH WIND       PRES   REMARKS
LINCOLN        CLOUDY    39  32  76 N28G35    29.97R WCI  28
OMAHA EPPLEY   CLOUDY    37  33  85 N18       29.94R WCI  27
FALLS CITY     CLOUDY    37  33  85 N20G35    29.88R WCI  27
$$

NEZ044-045-051>053-067-251800-
OMAHA AREA

CITY           SKY/WX    TMP DP  RH WIND       PRES   REMARKS
OMAHA EPPLEY   CLOUDY    37  33  85 N18       29.94R WCI  27
OFFUTT AFB     CLOUDY    37  33  84 N17       29.94R WCI  28
$$


USA.gov is the U.S. government's official web portal to all federal, state and local government web resources and services.